Location: Unspecified
(0.0000°N, 0.0000°E)
Time: 06:35:48
(UTC+00:00)

Vanguard 2 Rocket - Pass Details

Date: 17 December 2018
Orbit: 554 x 3326 km, 32.9° (Epoch: 16 June)

Event Time Altitude Azimuth Distance (km) Brightness Sun altitude
Rises 15:59:13 0° 272° (W) 5,426 11.8 26.6°
Reaches altitude 10° 16:02:53 10° 262° (W) 4,794 12.1 25.8°
Maximum altitude 16:15:38 34° 203° (SSW) 4,135 11.2 23.0°
Drops below altitude 10° 16:32:40 10° 145° (SE) 6,289 11.1 19.1°
Sets 16:38:36 0° 136° (SE) 7,269 11.3 17.8°
